Ocean City, MD

6:50 PM EDT on October 16, 2017 (GMT -0400)
Ocean City Municipal

Weather History for KOXB - October, 2012

Change the Weather History Date:

Sunday, October 14, 2012

  Actual Average (KSBY) Record (KSBY)
Temperature  
Mean Temperature 58 °F -  
Max Temperature 71 °F 71 °F 86 °F (1975)
Min Temperature 46 °F 48 °F 26 °F (1907)
Degree Days  
Heating Degree Days 7    
Growing Degree Days 8 (Base 50)    
Moisture  
Dew Point 57 °F    
Average Humidity 84    
Maximum Humidity 100    
Minimum Humidity 68    
Precipitation  
Precipitation 0.00 in - - ()
Sea Level Pressure  
Sea Level Pressure 30.19 in    
Wind  
Wind Speed 6 mph (SW)    
Max Wind Speed 10 mph    
Max Gust Speed 17 mph    
Visibility 10 miles    
Events      
Averages and records for this station are not official NWS values.
T = Trace of Precipitation, MM = Missing Value Source: NWS Daily Summary

Daily Weather History Graph

Daily Weather History Graph

Search for Another Location

Airport or City:

Trip Planner

Search our weather history database for the weather conditions in past years. The results will help you decide how hot, cold, wet, or windy it might be!

Date:

Astronomy

Oct. 14, 2012 Rise Set
Actual Time 7:08 AM EDT 6:23 PM EDT
Civil Twilight 6:42 AM EDT 6:49 PM EDT
Nautical Twilight 6:11 AM EDT 7:20 PM EDT
Astronomical Twilight 5:40 AM EDT 7:51 PM EDT
Moon 6:05 AM EDT (10/14) 5:41 PM EDT (10/14)
Length of Visible Light 12h 07m
Length of Day
11h 14m
Waning Crescent, 1% of the Moon is Illuminated
Oct 14
Waning Crescent
Oct 15
New
Oct 21
First Quarter
Oct 29
Full
Nov 6
Last Quarter

Hourly Weather History & Observations

Time (EDT) Temp. Dew Point Humidity Pressure Visibility Wind Dir Wind Speed Gust Speed Precip Events Conditions
1:53 AM 54.0 °F 48.9 °F 83% 30.32 in 10.0 mi WSW 4.6 mph - N/A   Clear
2:53 AM 55.9 °F 50.0 °F 80% 30.30 in 10.0 mi SW 6.9 mph - N/A   Clear
3:53 AM 57.0 °F 52.0 °F 83% 30.27 in 10.0 mi SW 6.9 mph - N/A   Clear
4:53 AM 57.0 °F 54.0 °F 89% 30.27 in 10.0 mi SW 5.8 mph - N/A   Clear
5:53 AM 54.0 °F 52.0 °F 93% 30.27 in 10.0 mi West 3.5 mph - N/A   Clear
6:53 AM 46.9 °F 46.9 °F 100% 30.27 in 3.0 mi Calm Calm - N/A   Clear
7:53 AM 50.0 °F 48.9 °F 96% 30.28 in 10.0 mi Calm Calm - N/A   Clear
8:53 AM 60.1 °F 55.9 °F 86% 30.28 in 10.0 mi SW 8.1 mph - N/A   Clear
9:53 AM 64.9 °F 57.0 °F 75% 30.28 in 10.0 mi SW 10.4 mph 16.1 mph N/A   Clear
10:53 AM 66.0 °F 57.9 °F 75% 30.27 in 10.0 mi SSW 6.9 mph - N/A   Clear
11:53 AM 68.0 °F 57.9 °F 70% 30.25 in 10.0 mi Variable 5.8 mph - N/A   Clear
12:53 PM 70.0 °F 59.0 °F 68% 30.22 in 10.0 mi SSW 6.9 mph 17.3 mph N/A   Clear
1:53 PM 69.1 °F 59.0 °F 70% 30.18 in 10.0 mi SSW 8.1 mph 16.1 mph N/A   Clear
2:53 PM 69.1 °F 60.1 °F 73% 30.15 in 10.0 mi SSW 8.1 mph - N/A   Clear
3:53 PM 69.1 °F 61.0 °F 75% 30.13 in 10.0 mi SSW 9.2 mph - N/A   Clear
4:53 PM 66.9 °F 61.0 °F 81% 30.11 in 10.0 mi SSW 8.1 mph - N/A   Clear
5:53 PM 64.9 °F 62.1 °F 90% 30.10 in 10.0 mi SSW 4.6 mph - N/A   Clear
6:53 PM 64.0 °F 61.0 °F 90% 30.08 in 10.0 mi SW 6.9 mph - N/A   Clear
7:53 PM 64.9 °F 61.0 °F 87% 30.09 in 10.0 mi SW 8.1 mph - N/A   Clear
8:53 PM 64.0 °F 61.0 °F 90% 30.07 in 10.0 mi SSW 5.8 mph - N/A   Clear
9:53 PM 64.0 °F 61.0 °F 90% 30.06 in 10.0 mi SW 6.9 mph - N/A   Clear
10:53 PM 64.9 °F 62.1 °F 90% 30.05 in 10.0 mi SSW 9.2 mph - N/A   Clear
11:53 PM 64.9 °F 62.1 °F 90% 30.02 in 10.0 mi SW 9.2 mph - N/A   Clear